Weather in Ancona

Italy     43°36′25″N   13°30′37″E
temp.,
°C
wind,
m/s
gust,
m/s
humid.,
%
clouds,
%
prec.,
mm/h
press.,
hPa
HPBL,
m
23 april, fri
fri2323:00+8s11925 0.0 102020
02:00+8w11946 0.0 102016
05:00+7w229472 0.0 102015
08:00+10w228616 0.0 1021137
11:00+15nne446825 0.0 10221065
14:00+15n43632 0.1 1022867
17:00+15nne32620 0.0 1022761
20:00+10nw11820 0.0 102212
24 april, sat
sat2423:00+9nw11850 0.0 102412
02:00+8wnw22880 0.0 102317
05:00+7w22890 0.0 102224
08:00+10wnw24790 0.0 1023160
11:00+16nnw22530 0.0 1023907
14:00+17n33470 0.0 10211080
17:00+16nnw44480 0.0 1020595
20:00+10wnw22640 0.0 102013
25 april, sun
sun2523:00+8w226024 0.0 102112
02:00+7wsw22570 0.0 102012
05:00+7wsw22540 0.0 101913
08:00+11sw11514 0.0 101955
11:00+18nne114118 0.0 1018670
14:00+19ne224213 0.0 10181033
17:00+17e324985 0.0 1017438
20:00+12s22675 0.0 101715
26 april, mon
mon2623:00+11s2258100 0.0 101711
02:00+10s116547 0.0 101611
05:00+10s116729 0.0 101513
08:00+13s126662 0.0 101590
11:00+19se335582 0.0 1014657
14:00+19ese5355100 0.0 1014568
17:00+16ese5667100 0.0 1013392
20:00+13se4874100 0.0 1012231
27 april, tue
tue2723:00+12sse31091100 0.1 1012293
02:00+12se3692100 0.3 1011178
05:00+11e3894100 0.0 1009204
08:00+13ese5993100 0.1 1007570
11:00+15sse2386100 0.7 1007625
14:00+15e2288100 1.3 1006299
17:00+14ese2289100 0.1 1005211
20:00+13se229292 0.2 100538